This demonstration page uses our WeatherBlox Daily Observations layout. Learn more.

Hourly Observations for October 21, 2019

Temp ( °F °C ) Dew Point ( °F °C ) Humidity (%) Winds ( mph kmh ) Pressure ( in mb ) Visibility ( mi km ) Precip ( " mm )
12:53 am 00:53 Clear 56 13.3 54 12.2 93 93 Calm 29.94 1014 10 16.09344 0 0
1:53 am 01:53 Clear 56 13.3 55 12.8 97 97 Calm 29.91 1013 9 14.484096 0 0
2:53 am 02:53 Clear 56 13.3 55 12.8 97 97 Calm 29.91 1013 8 12.874752 0 0
3:53 am 03:53 Clear with Mist and Fog 54 12.2 54 12.2 100 100 Calm 29.88 1012 5 8.04672 0 0
4:53 am 04:53 Clear with Mist and Fog 52 11.1 52 11.1 100 100 Calm 29.88 1012 5 8.04672 0 0
5:04 am 05:04 Clear with Mist and Fog 52 11.1 52 11.1 100 100 Calm 29.94 1014 1.75 2.816352 0 0
5:11 am 05:11 Clear with Mist and Fog 52 11.1 52 11.1 100 100 Calm 29.94 1014 1.25 2.01168 0 0
5:16 am 05:16 Clear with Mist and Fog 53 11.7 53 11.7 100 100 E 3 6 29.94 1014 4 6.437376 0 0
5:35 am 05:35 Partly Cloudy with Mist and Fog 52 11.1 52 11.1 100 100 E 5 7 29.94 1014 6 9.656064 0 0
5:50 am 05:50 Mostly Cloudy 55 13 54 12 94 94 ESE 5 7 29.91 1013 10 16.09344 0 0
5:53 am 05:53 Mostly Cloudy 56 13.3 55 12.8 97 97 E 5 7 29.88 1012 10 16.09344 0 0
6:53 am 06:53 Cloudy 58 14.4 57 13.9 97 97 Calm 29.88 1012 10 16.09344 0 0
7:53 am 07:53 Cloudy 59 15 57 13.9 93 93 VRB 3 6 29.85 1011 10 16.09344 0 0
8:49 am 08:49 Cloudy 61 16 57 14 88 88 VRB 5 7 29.88 1012 10 16.09344 0 0
8:53 am 08:53 Cloudy 60 15.6 57 13.9 90 90 VRB 6 9 29.85 1011 10 16.09344 0 0
9:53 am 09:53 Mostly Cloudy 61 16.1 57 13.9 87 87 VRB 6 9 29.83 1010 10 16.09344 0 0
10:05 am 10:05 Partly Cloudy 61 16.1 57 13.9 87 87 VRB 7 11 29.85 1011 10 16.09344 0 0
10:53 am 10:53 Mostly Cloudy 63 17.2 57 13.9 81 81 VRB 5 7 29.8 1009 10 16.09344 0 0
11:02 am 11:02 Cloudy 63 17.2 57 13.9 81 81 ESE 9 15 29.83 1010 10 16.09344 0 0
11:53 am 11:53 Mostly Cloudy 67 19.4 57 13.9 71 71 ESE 9 15 29.74 1007 10 16.09344 0 0
12:01 pm 12:01 Mostly Cloudy with Nearby Thunderstorms 67 19.4 57 13.9 71 71 VRB 7 11 29.77 1008 10 16.09344 0 0
12:16 pm 12:16 Cloudy with Rain 66 18.9 59 15 78 78 undefined N/A 29.8 1009 3 4.828032 0.03 0.762
12:53 pm 12:53 Cloudy with Light Rain 65 18.3 61 16.1 87 87 Calm 29.8 1009 10 16.09344 0.03 0.762
1:04 pm 13:04 Cloudy with Rain 64 17.8 61 16.1 90 90 Calm 29.8 1009 1.75 2.816352 0.03 0.762
1:13 pm 13:13 Cloudy with Light Rain 64 17.8 62 16.7 93 93 Calm 29.8 1009 5 8.04672 0.03 0.762
1:53 pm 13:53 Mostly Cloudy 67 19.4 62 16.7 84 84 VRB 6 9 29.74 1007 10 16.09344 0.04 1.016
2:53 pm 14:53 Mostly Sunny 70 21.1 60 15.6 71 71 S 8 13 29.71 1006 10 16.09344 0 0
3:53 pm 15:53 Cloudy 74 23.3 60 15.6 62 62 S 10 17 29.71 1006 10 16.09344 0 0
4:53 pm 16:53 Cloudy 73 22.8 57 13.9 57 57 SSW 8 13 29.71 1006 10 16.09344 0 0
5:53 pm 17:53 Cloudy with Light Rain 69 20.6 59 15 70 70 SW 10 17 29.71 1006 9 14.484096 0.01 0.254
6:53 pm 18:53 Cloudy 69 20.6 56 13.3 63 63 VRB 6 9 29.71 1006 10 16.09344 0.01 0.254
7:53 pm 19:53 Cloudy with Rain 64 17.8 61 16.1 90 90 VRB 5 7 29.74 1007 6 9.656064 0.02 0.508
8:53 pm 20:53 Cloudy 63 17.2 60 15.6 90 90 S 8 13 29.74 1007 10 16.09344 0.01 0.254
9:53 pm 21:53 Mostly Cloudy 63 17.2 59 15 87 87 S 6 9 29.74 1007 10 16.09344 0 0
10:53 pm 22:53 Mostly Clear 63 17.2 57 13.9 81 81 VRB 7 11 29.77 1008 10 16.09344 0 0
11:40 pm 23:40 Mostly Cloudy 63 17.2 57 13.9 81 81 SSW 8 13 29.77 1008 10 16.09344 0 0
11:53 pm 23:53 Mostly Cloudy 62 16.7 57 13.9 84 84 VRB 6 9 29.77 1008 10 16.09344 0 0

Powered by AerisWeather